Beidou DW 41

operational
NORAD ID: 43683 Int'l Des: 2018-085 Owner: CNSA Country: CN Constellation: BeiDou
HEOCIRCULARGSO

Beidou DW 41について

説明を読み込み中...

リアルタイム位置

3D地球を読み込み中...

次回通過

高度履歴

Altitude vs Time

uPlot chart will show altitude changes over time

軌道要素

1 43683U 18085A 25350.29893962 -.00000255 00000-0 00000-0 0 9992
2 43683 2.6166 102.8634 0001637 52.2072 177.7939 1.00269856 26228
Epoch: Dec 16, 2025 • Age: 21 hours

現在のステータス

高度 35791.7 km
速度 3.07 km/s
衛星直下点 -0.40°S, 140.05°E
打ち上げ日 Nov 1, 2018
運用期間 7.1 years
タイプ navigation

技術仕様

分類 Payload
質量 3060.00 kg
乾燥質量 1700.00 kg
総質量 3060.00 kg
長さ 3.00 m
直径 1.70 m
スパン 18.00 m
形状 Box + 2 Pan
製造者 CAST
バスタイプ DFH-3B
フェーズステータス In Orbit
所有者/国 CNSA/CN

大規模コンステレーション

Loading constellations...